Skip Page Navigation
NASA JPL Caltech
NASA Logo - Jet Propulsion Laboratory + View the NASA Portal
+ Center for Near-Earth Object Studies
JPL Home Earth Solar System Stars & Galaxies Technology
JPL Solar System Dynamics
BODIES ORBITS EPHEMERIDES TOOLS PHYSICAL DATA DISCOVERY FAQ SITE MAP
IMPORTANT: The SSD Announcement email list is now available. Major changes are coming in the near future, including possible hostname and/or URL changes. To be notified of such changes, subscribe to this email list.

Please visit this page for more details.


JPL Small-Body Database Browser
Search: [ help ]  
105480 (2000 QF215)
Classification: Main-belt Asteroid          SPK-ID: 2105480
Ephemeris | Orbit Diagram | Orbital Elements | Mission Design | Physical Parameters | Discovery Circumstances | Close-Approach Data ]

[ show orbit diagram ]
Orbital Elements at Epoch 2459000.5 (2020-May-31.0) TDB
Reference: JPL 16 (heliocentric ecliptic J2000)
 Element Value Uncertainty (1-sigma)   Units 
e .1133181297875066 4.8778e-08  
a 2.386457117175568 1.3181e-08 au
q 2.116028259839148 1.1679e-07 au
i 3.282685036503684 5.2201e-06 deg
node 67.31008630159845 7.4956e-05 deg
peri 319.3965724077261 7.714e-05 deg
M 97.87045278270065 1.8809e-05 deg
tp 2458634.418336817790
(2019-May-30.91833682)
6.9447e-05 TDB
period 1346.569827751837
3.69
1.1156e-05
3.054e-08
d
yr
n .2673459575438707 2.2149e-09 deg/d
Q 2.656885974511988 1.4674e-08 au
  Orbit Determination Parameters
   # obs. used (total)      496  
   data-arc span      9015 days (24.68 yr)  
   first obs. used      1995-04-02  
   last obs. used      2019-12-07  
   planetary ephem.      DE431  
   SB-pert. ephem.      SB431-N16  
   condition code      0  
   norm. resid. RMS      .59706  
   source      ORB  
   producer      Otto Matic  
   solution date      2019-Dec-14 08:51:50  

Additional Information
 Earth MOID = 1.12174 au 
 Jupiter MOID = 2.76445 au 
 T_jup = 3.524 
[ show covariance matrix ]

Ephemeris | Orbit Diagram | Orbital Elements | Mission Design | Physical Parameters | Discovery Circumstances | Close-Approach Data ]

Physical Parameter Table
Parameter Symbol Value Units Sigma Reference Notes
absolute magnitude H 16.2   n/a MPO453512  

105480 (2000 QF215)          Discovered 2000-Aug-31 by LINEAR at Socorro
Reference: 20051019/Numbers.arcLast Updated: 2005-10-26

[ hide close-approach data ]
Close-Approach Data   ...sorted by Date/Time (TDB)
Date/Time (TDB) Time Uncertainty
(days_HH:MM)
Body Nominal Distance (au) Minimum Distance (au) Maximum Distance (au) V-relative (km/s) V-infinity (km/s) JD (TDB) Time Uncertainty (minutes) Semi-major axis (km) Semi-minor axis (km) range-LOV angle (deg) N-sigma BP Orbit Ref. Reference Modified
1939-May-31 21:26 00:02 Amphi 0.0305387503192019 0.0305325996671312 0.0305449074187727 2.00254099588414 2.00254090188143 2429415.393251041 2.09441768044202 766.726992589748 35.2043803119562 66.6026085744369 118881.358663263 T 16 CATAB v2.0f-lin.ifort 2019-Dec-14 08:51:57 2019-Dec-14 08:52
2070-Nov-04 20:07 < 00:01 Juno 0.0340584523953031 0.0340555897820181 0.0340613220116644 6.08344436359536 6.08344430487732 2477420.338403746 0.590283390294894 812.029643710847 38.4970787123042 80.2358586690906 130378.89976634 T 16 CATAB v2.0f-lin.ifort 2019-Dec-14 08:51:57 2019-Dec-14 08:52
Ephemeris | Orbit Diagram | Orbital Elements | Mission Design | Physical Parameters | Discovery Circumstances | Close-Approach Data ]
ABOUT SSD CREDITS/AWARDS PRIVACY/COPYRIGHT GLOSSARY LINKS
FirstGov 2020-Jun-06 18:40 UT
(server date/time)  
NASA Home Page
Site Manager:   Ryan S. Park
Webmaster  Alan B. Chamberlin